STARLINK-34064, 64114

Orbit data source: Space-Track

STARLINK-34064, 64114 is a payload satellite owned by SpaceX/Seattle (US) in LEO that was launched on Fri, 23 May 2025 UTC via an FALCON 9 launch vehicle from the Air Force Western Test Range (AFWTR). Payload-class satellites include a variety of spacecraft equipped with specific instruments for various scientific and technological missions. These include communications satellites like Starlink; space stations such as the ISS; scientific satellites like the Hubble; Earth observation satellites from companies like Planet Labs, Umbra, and HawkEye 360; GPS; miniature CubeSats for education and research; and military/defense satellites.

Loading next visibility...
Identifier
64114, 2025-110U
Orbit
LEO
Country
Flag of USUS
Related business
Manufacturer
SpaceX/Seattle
Mission
Operational Commercial Communications
Bus & Motor
STARLINK V2MO, Unknown motor
Mass
575 kg wet, ~530 kg dry
Launch date (UTC)
2025-05-23 (1 year ago)
Launch vehicle
FALCON 9
Launch site
Air Force Western Test Range (AFWTR)
Object type
Payload
Rocket body
Debris
Shape & HBR
Box + 2 Pan, 17.7 m
Radar Cross Section
36.964 m², Large (>1 m²)

Expand to show TLE details & history
Last TLE update: 1 day ago

TLE from 1 day ago
0 STARLINK-34064
1 64114U 25110U   26170.56087904  .00008772  00000-0  29401-3 0  9993
2 64114  53.1589 273.2839 0001005  71.7523 288.3587 15.31712041 61489
Epoch: 2026-06-19T13:27Z
TLE epoch observation values (Epoch: 2026-06-19T13:27:39.949Z)
Latitude
-0.00006°
Longitude
163.57931°
Altitude
471.388 km
Speed
7.632 km/s
True Right ascension
18h 13m 08s
True Declination
0° 00' 00"
Sunlit
Object was in full shadow at epoch
Visualization orbit readout
Latitude
Unknown
Longitude
Unknown
Altitude
Unknown
Speed
Unknown
Apparent Right ascension
Unknown
Apparent Declination
Unknown
Sunlit
N/A
Visualization observer readout
Local Sidereal Time
07:15:24
Azimuth
Unknown
Elevation
Unknown
Doppler factor
Unknown
Orbital elements
Apogee altitude
471.649 km
Perigee altitude
470.273 km
Semi-major axis
6,849.098 km
Eccentricity
0.0001
Inclination
53.1589°
RAAN
273.2839°
Arg. of periapsis
71.7523°
True anomaly
288.34777°
Mean anomaly
288.3587°
Eccentric anomaly
288.35323°
Mean motion
3.82907 °/min
Orbital period
94.02 mins
BSTAR
0.00029401
Loading maneuver chart data...
Computing Atmospheric mass density...
Loading historical data...
Loading historical data...
Loading historical data...
Loading historical data...
Loading historical data...
Loading historical data...
Loading historical data...

Documentation

Showing up to 5 results
|